Date String (YYYY-MM-DD hh:mm:ss) UTC,Instrument flags,absolute air pressure of the measurement (hPa),sample flow rate (lpm),inlet stack bypass flow (lpm),air temperature of the measurement (°C),ambient temperature measured by the external sensor (°C),aerosol sample conditioner tube jacket temperature (°C),OPC LED temperature (°C),internal box temperature (°C),relative humidity of the measurement (%),span deviation,mass concentration of particles derived from Lorenz-Mie calculation of OPC scattering (μg/m³),mass concentration of particles derived from Lorenz-Mie calculation of OPC scattering (μg/m³),mass concentration of particles derived from Lorenz-Mie calculation of OPC scattering (μg/m³)
DateTimeUTC,F1_M11,P_M11,Q1_M11,Q2_M11,T1_M11,T2_M11,T3_M11,T4_M11,T5_M11,U1_M11,ZSPAN_M11,X0_M11,X2_M11,X1_M11
2023-07-13 14:00:00,SystemResetWarning,0831.9,4.99,000.00,029.2,025.8,000.0,037.7,030.5,31.8,0000.0,0008.69,0003.90,0003.40
2023-07-13 14:01:00,SystemResetWarning,0831.9,5.00,000.00,029.2,026.2,000.0,037.7,030.6,33.2,0000.0,0009.02,0003.92,0003.41
2023-07-13 14:02:00,SystemResetWarning,0831.9,5.00,000.00,029.2,026.6,000.0,037.7,030.7,32.4,0000.0,0009.55,0003.89,0003.41
2023-07-13 14:03:00,SystemResetWarning,0831.9,5.00,000.00,029.2,026.9,000.0,037.7,030.7,32.7,0000.0,0009.22,0003.84,0003.42
2023-07-13 14:04:00,SystemResetWarning,0831.9,5.00,000.00,029.2,027.2,000.0,037.7,030.8,32.9,0000.0,0008.98,0003.81,0003.41
2023-07-13 14:05:00,SystemResetWarning,0831.9,5.00,000.00,029.2,027.5,000.0,037.8,030.8,33.4,0000.0,0009.10,0003.86,0003.42
2023-07-13 14:06:00,SystemResetWarning,0831.9,5.00,000.00,029.3,027.7,000.0,037.8,030.9,33.1,0000.0,0008.95,0003.89,0003.43
2023-07-13 14:07:00,SystemResetWarning,0831.9,5.00,000.00,029.3,027.8,000.0,037.8,030.9,32.8,0000.0,0008.69,0003.91,0003.44
2023-07-13 14:08:00,SystemResetWarning,0831.9,5.00,000.00,029.3,028.0,000.0,037.8,031.0,32.2,0000.0,0009.00,0003.89,0003.44
2023-07-13 14:09:00,SystemResetWarning,0831.9,5.00,000.00,029.4,028.1,000.0,037.8,031.0,30.5,0000.0,0009.36,0003.89,0003.45
2023-07-13 14:10:00,SystemResetWarning,0831.9,5.00,000.00,029.4,028.2,000.0,037.8,031.1,31.2,0000.0,0009.78,0003.89,0003.45
2023-07-13 14:11:00,SystemResetWarning,0831.9,4.99,000.00,029.4,028.3,000.0,037.9,031.1,30.8,0000.0,0010.40,0003.90,0003.45
2023-07-13 14:12:00,SystemResetWarning,0831.9,5.00,000.00,029.5,028.1,000.0,037.8,031.1,30.0,0000.0,0010.80,0003.89,0003.45
2023-07-13 14:13:00,SystemResetWarning,0831.9,5.00,000.00,029.4,026.6,000.0,037.7,030.9,30.1,0000.0,0010.54,0003.95,0003.46
2023-07-13 14:14:00,SystemResetWarning,0831.9,5.01,000.00,029.4,025.4,000.0,037.6,030.7,26.3,0000.0,0010.44,0003.99,0003.47
2023-07-13 14:15:00,SystemResetWarning,0831.8,5.01,000.00,029.3,025.3,000.0,037.6,030.6,27.9,0000.0,0010.56,0004.04,0003.49
2023-07-13 14:16:00,SystemResetWarning,0831.8,5.00,000.00,029.2,025.7,000.0,037.6,030.5,27.4,0000.0,0010.53,0004.06,0003.49
2023-07-13 14:17:00,SystemResetWarning,0831.8,5.00,000.00,029.2,026.1,000.0,037.7,030.5,27.2,0000.0,0010.40,0004.04,0003.49
2023-07-13 14:18:00,SystemResetWarning,0831.7,5.01,000.00,029.2,026.5,000.0,037.7,030.6,27.0,0000.0,0010.86,0004.04,0003.49
2023-07-13 14:19:00,SystemResetWarning,0831.8,4.99,000.00,029.2,026.8,000.0,037.7,030.7,26.2,0000.0,0010.62,0004.06,0003.49
2023-07-13 14:20:00,SystemResetWarning,0831.8,4.99,000.00,029.2,027.1,000.0,037.7,030.7,25.0,0000.0,0010.52,0004.06,0003.49
2023-07-13 14:21:00,SystemResetWarning,0831.9,5.00,000.00,029.2,027.4,000.0,037.7,030.8,26.2,0000.0,0010.79,0004.09,0003.51
2023-07-13 14:22:00,SystemResetWarning,0831.9,5.00,000.00,029.2,027.6,000.0,037.7,030.9,25.3,0000.0,0010.26,0004.11,0003.51
2023-07-13 14:23:00,SystemResetWarning,0831.9,5.01,000.00,029.3,027.7,000.0,037.7,030.9,25.6,0000.0,0009.56,0004.12,0003.52
2023-07-13 14:24:00,SystemResetWarning,0831.9,5.00,000.00,029.3,027.9,000.0,037.7,031.0,24.8,0000.0,0009.70,0004.07,0003.52
2023-07-13 14:25:00,SystemResetWarning,0831.9,5.00,000.00,029.3,028.0,000.0,037.8,031.0,25.3,0000.0,0009.69,0004.05,0003.51
2023-07-13 14:26:00,SystemResetWarning,0831.9,5.00,000.00,029.4,028.1,000.0,037.8,031.0,24.9,0000.0,0009.58,0004.02,0003.51
2023-07-13 14:27:00,SystemResetWarning,0831.8,4.98,000.00,029.4,027.2,000.0,037.7,031.0,25.5,0000.0,0009.52,0003.98,0003.51
2023-07-13 14:28:00,SystemResetWarning,0832.1,5.01,000.00,029.3,025.7,000.0,037.6,030.7,26.5,0000.0,0010.27,0003.98,0003.51
2023-07-13 14:29:00,SystemResetWarning,0832.2,5.01,000.00,029.3,025.3,000.0,037.5,030.6,26.0,0000.0,0009.77,0003.95,0003.50
2023-07-13 14:30:00,SystemResetWarning,0832.2,5.01,000.00,029.2,025.6,000.0,037.5,030.5,24.6,0000.0,0009.73,0003.93,0003.50
2023-07-13 14:31:00,SystemResetWarning,0832.1,5.00,000.00,029.1,026.0,000.0,037.6,030.5,25.1,0000.0,0009.49,0003.94,0003.50
2023-07-13 14:32:00,SystemResetWarning,0832.1,5.01,000.00,029.1,026.4,000.0,037.6,030.6,26.9,0000.0,0008.92,0003.91,0003.49
2023-07-13 14:33:00,SystemResetWarning,0832.3,5.00,000.00,029.1,026.7,000.0,037.6,030.6,26.8,0000.0,0008.96,0003.91,0003.49
2023-07-13 14:34:00,SystemResetWarning,0832.3,4.99,000.00,029.1,027.0,000.0,037.6,030.7,28.3,0000.0,0008.87,0003.91,0003.49
2023-07-13 14:35:00,SystemResetWarning,0832.2,4.99,000.00,029.1,027.3,000.0,037.6,030.8,27.7,0000.0,0008.45,0003.93,0003.48
2023-07-13 14:36:00,SystemResetWarning,0832.2,5.00,000.00,029.2,027.5,000.0,037.7,030.8,28.8,0000.0,0008.84,0003.94,0003.48
2023-07-13 14:37:00,SystemResetWarning,0832.1,5.00,000.00,029.2,027.7,000.0,037.7,030.9,28.5,0000.0,0008.88,0003.95,0003.48
2023-07-13 14:38:00,SystemResetWarning,0832.1,5.01,000.00,029.3,027.9,000.0,037.7,030.9,28.9,0000.0,0008.96,0003.97,0003.48
2023-07-13 14:39:00,SystemResetWarning,0831.8,5.01,000.00,029.3,028.0,000.0,037.7,030.9,30.3,0000.0,0008.27,0004.00,0003.49
2023-07-13 14:40:00,SystemResetWarning,0832.0,5.00,000.00,029.3,028.1,000.0,037.7,031.0,31.1,0000.0,0008.22,0004.02,0003.50
2023-07-13 14:41:00,SystemResetWarning,0832.0,4.99,000.00,029.4,027.8,000.0,037.7,031.0,30.3,0000.0,0007.94,0004.04,0003.51
2023-07-13 14:42:00,SystemResetWarning,0831.7,4.99,000.00,029.3,026.2,000.0,037.6,030.8,31.2,0000.0,0008.15,0004.05,0003.52
2023-07-13 14:43:00,SystemResetWarning,0831.7,5.01,000.00,029.2,025.3,000.0,037.5,030.6,31.6,0000.0,0008.49,0004.09,0003.53
2023-07-13 14:44:00,SystemResetWarning,0831.7,5.01,000.00,029.2,025.5,000.0,037.5,030.5,33.0,0000.0,0008.77,0004.09,0003.53
2023-07-13 14:45:00,SystemResetWarning,0831.7,5.00,000.00,029.1,025.8,000.0,037.5,030.4,32.0,0000.0,0009.44,0004.10,0003.53
2023-07-13 14:46:00,SystemResetWarning,0831.7,5.00,000.00,029.1,026.2,000.0,037.6,030.5,31.9,0000.0,0009.71,0004.11,0003.56
2023-07-13 14:47:00,SystemResetWarning,0831.7,5.01,000.00,029.1,026.6,000.0,037.6,030.6,31.4,0000.0,0009.35,0004.15,0003.58
2023-07-13 14:48:00,SystemResetWarning,0831.7,5.00,000.00,029.1,026.9,000.0,037.6,030.6,29.1,0000.0,0009.43,0004.17,0003.58
2023-07-13 14:49:00,SystemResetWarning,0831.7,5.00,000.00,029.1,027.2,000.0,037.6,030.7,30.1,0000.0,0009.43,0004.15,0003.60
2023-07-13 14:50:00,SystemResetWarning,0831.7,5.00,000.00,029.1,027.4,000.0,037.6,030.8,28.6,0000.0,0009.48,0004.16,0003.60
2023-07-13 14:51:00,SystemResetWarning,0831.7,5.00,000.00,029.2,027.6,000.0,037.6,030.8,30.0,0000.0,0009.82,0004.17,0003.61
2023-07-13 14:52:00,SystemResetWarning,0831.9,4.99,000.00,029.2,027.8,000.0,037.6,030.9,28.9,0000.0,0010.16,0004.17,0003.63
2023-07-13 14:53:00,SystemResetWarning,0832.2,4.98,000.00,029.2,028.0,000.0,037.7,030.9,29.4,0000.0,0010.08,0004.20,0003.65
2023-07-13 14:54:00,SystemResetWarning,0831.9,5.01,000.00,029.3,028.1,000.0,037.7,031.0,30.1,0000.0,0009.91,0004.19,0003.66
2023-07-13 14:55:00,SystemResetWarning,0832.0,5.00,000.00,029.3,027.6,000.0,037.6,031.0,30.5,0000.0,0009.72,0004.21,0003.68
2023-07-13 14:56:00,SystemResetWarning,0832.0,4.99,000.00,029.3,026.0,000.0,037.5,030.6,32.6,0000.0,0009.17,0004.23,0003.70
2023-07-13 14:57:00,SystemResetWarning,0831.7,5.01,000.00,029.2,025.3,000.0,037.5,030.5,32.3,0000.0,0009.28,0004.24,0003.72
2023-07-13 14:58:00,SystemResetWarning,0831.9,5.01,000.00,029.1,025.5,000.0,037.5,030.4,31.6,0000.0,0009.74,0004.23,0003.73
2023-07-13 14:59:00,SystemResetWarning,0831.9,4.99,000.00,029.1,025.9,000.0,037.5,030.4,33.5,0000.0,0009.62,0004.20,0003.75
